Вернуться в каталог

METEOR 1-12

АктивенПогодаPO
NORAD 6079·PAYLOAD·🇷🇺 Russia

Запущен Jun 30, 1972 с Plesetsk Cosmodrome

Loading…

Ближайшие Пролёты (ближайшие 24 часа)

TLE

СвежийSource: Space-Track

Эпоха: Sep 14, 2026, 10:04 UTC

1 06079U 72049A   26257.41991303  .00000080  00000-0  43500-4 0  9990
2 06079  81.2234 261.2376 0009972 219.4681 140.5761 14.03592337773625

Отслеживайте METEOR 1-12 в реальном времени с AllMySat

Download on the App Store